Regional Weather Roundup
Issued by NWS

Home | Current Version | Previous Version | Text Only | Print | Product List | Glossary On
Versions: 1 2 3 4 5 6 7 8 9 10 11 12 13 14 15 16 17 18 19 20 21 22 23 24 25 26 27 28 29 30 31 32 33 34 35 36 37 38 39 40 41 42 43 44 45 46 47 48 49 50
000
ASUS42 KFFC 252010
RWRGA
WEATHER ROUNDUP FOR GEORGIA
NATIONAL WEATHER SERVICE PEACHTREE CITY GA
400 PM EDT TUE APR 25 2017

NOTE: "FAIR" INDICATES FEW OR NO CLOUDS BELOW 12,000 FEET WITH NO
SIGNIFICANT WEATHER AND/OR OBSTRUCTIONS TO VISIBILITY.

* = USE WITH CAUTION. THE STATIONS MARKED WITH AN ASTERISK MAY NOT
REPORT WEATHER SUCH AS PRECIPITATION, FOG, OR THUNDER AND ARE NOT
QUALITY CONTROLLED BY NWS.

THE REMARK "TC" DENOTES TEMPERATURE READING IN DEGREES CELSIUS.

GAZ001>058-252100-
NORTH GEORGIA

CITY           SKY/WX    TMP DP  RH WIND       PRES   REMARKS
ATLANTA        MOSUNNY   75  58  55 NW10      29.75F
ATHENS         PTSUNNY   79  60  52 VRB7      29.71F
CHAMBLEE       SUNNY     75  55  49 W12G20    29.74F
PEACHTREE CITY SUNNY     77  55  46 NW9       29.75F
ROME           SUNNY     77  56  48 VRB3      29.74F
WEST ATLANTA   SUNNY     74  59  59 NW5       29.75F
GAINESVILLE    SUNNY     77  59  53 SW8       29.72F
CARTERSVILLE   MOSUNNY   74  58  57 VRB5      29.76F


CITY           SKY/WX    TMP DP  RH WIND       PRES   REMARKS
DALTON*        MOSUNNY   72  57  60 CALM      29.74F
LAWRENCEVILLE* MOSUNNY   75  57  53 NW7       29.73F
MARIETTA       MOSUNNY   75  56  53 W13       29.74F
KENNESAW*      MOSUNNY   73  55  53 NW7G16    29.73F
CANTON*        SUNNY     75  48  38 W13       29.76F
$$

GAZ059>098-102>109-252100-
CENTRAL GEORGIA

CITY           SKY/WX    TMP DP  RH WIND       PRES   REMARKS
AUGUSTA-BUSH   PTSUNNY   78  57  48 NW15      29.69F
AUGUSTA-DANIEL CLOUDY    75  56  51 NW8       29.72S
COLUMBUS       SUNNY     80  51  36 W10G18    29.75F
MACON          SUNNY     81  55  40 W10G20    29.72F
ROBINS AFB     SUNNY     82  55  40 W10       29.72F


CITY           SKY/WX    TMP DP  RH WIND       PRES   REMARKS
LAGRANGE*      SUNNY     79  60  52 NW5       29.76F
SYLVANIA*      CLOUDY   N/A N/A N/A W7        29.71F
MILLEDGEVILLE* MOSUNNY   79  61  53 W6        29.72F
$$

GAZ099>101-110>166-252100-
SOUTH GEORGIA

CITY           SKY/WX    TMP DP  RH WIND       PRES   REMARKS
SAVANNAH       PTSUNNY   80  56  43 W13       29.71F
VALDOSTA       MOSUNNY   81  55  40 NW8       29.77F
ALMA           PTSUNNY   81  56  42 W12G18    29.74F
ST SIMONS      PTSUNNY   81  56  42 W14       29.73F
FT STEWART     PTSUNNY   81  57  44 W9G18     29.70F
ALBANY         SUNNY     81  56  42 W10       29.78F
HUNTER AFB     PTSUNNY   79  62  55 W10       29.69F
MOODY AFB      SUNNY     81  52  37 SW9G18    29.75F
BRUNSWICK      PTSUNNY   81  61  50 SW8G20    29.74F


CITY           SKY/WX    TMP DP  RH WIND       PRES   REMARKS
BAINBRIDGE*    SUNNY     79  52  38 CALM      29.78F
MOULTRIE*      SUNNY     79  54  41 W9        29.78F
VIDALIA*       PTSUNNY   81  57  44 W8G17     29.73F
WAYCROSS*      MOSUNNY   85  59  41 W12G17    29.73F
DOUGLAS*       MOSUNNY   81  52  36 NW9       29.76F
$$



USA.gov is the U.S. government's official web portal to all federal, state and local government web resources and services.